Regional Weather Roundup
Issued by NWS Burlington, VT

Home | Current Version | Previous Version | Text Only | Print | Product List | Glossary On
Versions: 1 2 3 4 5 6 7 8 9 10 11 12 13 14 15 16 17 18 19 20 21 22 23 24 25 26 27 28 29 30 31 32 33 34 35 36 37 38 39 40 41 42 43 44 45 46 47 48 49 50
000
ASUS41 KBTV 212130
RWRBTV
VERMONT REGIONAL WEATHER ROUNDUP
NATIONAL WEATHER SERVICE BURLINGTON VT
400 PM EST TUE FEB 21 2017

NOTE: "FAIR" INDICATES FEW OR NO CLOUDS BELOW 12,000 FEET WITH NO
SIGNIFICANT WEATHER AND/OR OBSTRUCTIONS TO VISIBILITY.

* THESE REPORTS ARE NOT UNDER NWS QUALITY CONTROL AND/OR DO NOT
  REPORT WEATHER SUCH AS PRECIPITATION AND FOG.

VTZ001>019-212200-
_____VERMONT_____


CITY           SKY/WX    TMP DP  RH WIND       PRES   REMARKS
BURLINGTON     CLOUDY    41  18  39 S15G22    30.03F
MONTPELIER     CLOUDY    38  15  39 S14       30.11F WCI  30
MORRISVILLE    CLOUDY    41  13  31 S8        30.07F
ST. JOHNSBURY*   N/A     41  16  36 MISG      30.08F
LYNDONVILLE*   FAIR      38  17  42 SE8G16    30.08F
MIDDLEBURY*    FAIR      38   2  22 S6        30.10S
RUTLAND*       CLOUDY    42  17  36 SE9       30.10F
SPRINGFIELD    CLOUDY    40  13  33 SE8       30.15F
HIGHGATE*      FAIR      42  14  32 S12G22    30.02F
NEWPORT*       FAIR      38  16  41 S12       30.04F WCI  30
BENNINGTON     CLOUDY    44  16  32 S8        30.11F
ISLAND POND*     N/A     41 N/A N/A S1          N/A
GALLUP MILLS*    N/A     37 N/A N/A MISG        N/A
UNION VILLAGE*   N/A     43 N/A N/A MISG        N/A
MT. MANSFIELD*   N/A     34 N/A N/A S28         N/A  WCI  20

_____LAKE CHAMPLAIN_____


CITY           SKY/WX    TMP DP  RH WIND       PRES   REMARKS
BURTON ISLAND*   N/A     41  21  45 S25G32      N/A  WCI  31
COLCHESTER RF*   N/A     39  27  60 S32         N/A  WCI  27
DIAMOND ISL*     N/A     41  19  42 S20         N/A  WCI  32

$$

NYZ007-026>031-035-052-083-087-212200-
_____NORTHERN NEW YORK_____


CITY           SKY/WX    TMP DP  RH WIND       PRES   REMARKS
PLATTSBURGH    CLOUDY    40  17  39 S12G23    30.02F
SARANAC LAKE   CLOUDY    42  14  32 SW14      29.97R
MASSENA        CLOUDY    36  24  62 NE5       30.01F
OGDENSBURG*    FAIR      44  22  41 S6        29.97F
POTSDAM*       SUNNY     41  27  56 CALM      29.97F
STARK FALLS*     N/A     45 N/A N/A S12         N/A
WATERTOWN      CLOUDY    46  23  40 S8        29.97F
FT DRUM        CLOUDY    42  20  40 SE14      29.97F
ALBANY         CLOUDY    43  18  36 S17G26    30.15F
GLENS FALLS    CLOUDY    44  17  33 S8        30.13F

$$
NHZ002-005-011-212200-
_____NEW HAMPSHIRE_____


CITY           SKY/WX    TMP DP  RH WIND       PRES   REMARKS
LEBANON        CLOUDY    43  16  33 SW7       30.13F
KEENE          CLOUDY    42  15  33 S13       30.17F
MT WASHINGTON  PTSUNNY   30   7  37 SW25G32     N/A  WCI  16
PLYMOUTH       FAIR      41  16  35 E6        30.15S
WHITEFIELD     CLOUDY    42  13  30 CALM      30.09F

$$

_____REGIONAL QUEBEC LOCATIONS_____


CITY           SKY/WX    TMP DP  RH WIND       PRES   REMARKS
MONTREAL       CLOUDY    37  19  48 SE7       30.01F
QUEBEC CITY    CLOUDY    32  16  51 E6        30.07F WCI  26
SHERBROOKE     SUNNY     43  14  31 SE6       30.03F

_____REGIONAL ONTARIO LOCATIONS_____


CITY           SKY/WX    TMP DP  RH WIND       PRES   REMARKS
OTTAWA         CLOUDY    34  21  60 E8        29.98F WCI  27

______KEY______
VSB  - VISIBILITY IN MILES
WCI  - WIND CHILL INDEX
HX   - HEAT INDEX
$$
NNNN



USA.gov is the U.S. government's official web portal to all federal, state and local government web resources and services.